SCP
0 0 0 0 0 0 0 0 0 0 0 0 0 0 0 0 0 0 0 0 0 0 0 0 0 0 0 0 0 0 0 0 0 0 0 0 0 0 0 0 0 0 0
0 0 0 0 0 0 0 0 0 0 0 0 0 0 0 0 0 0 0 0 0 0 0 0 0 0 0 0 0 0 0 0 0 0 0 0 0 0 0 0 0 0 0
0 0 0 0 0 0 0 0 0 0 0 0 0 0 0 0 0 0 0 0 0 0 0 0 0 0 0 0 0 0 0 0 0 0 0 0 0 0 0 0 0 0 0
0 0 0 0 0 0 0 0 0 0 0 0 0 0 0 0 0 0 0 0 0 0 0 0 0 0 0 0 0 0 0 0 0 0 0 0 0 0 0 0 0 0 0
0 0 0 0 0 0 0 0 0 0 0 0 0 0 0 0 0 0 0 0 0 0 0 0 0 0 0 0 0 0 0 0 0 0 0 0 0 0 0 0 0 0 0
0 0 0 0 0 0 0 0 0 0 0 0 0 0 0 0 0 0 0 0 0 0 0 0 0 0 0 0 0 0 0 0 0 0 0 0 0 0 0 0 0 0 0
0 0 0 0 0 0 0 0 0 0 0 0 0 0 0 0 0 0 0 0 0 0 0 0 0 0 0 0 0 0 0 0 0 0 0 0 0 0 0 0 0 0 0
0 0 0 0 0 0 0 0 0 0 0 0 0 0 0 0 0 0 0 0 0 0 0 0 0 0 0 0 0 0 0 0 0 0 0 0 0 0 0 0 0 0 0
0 0 0 0 0 0 0 0 0 0 0 0 0 0 0 -0 0 0 0 0 0 0 0 0 0 0 0 0 0 0 0 0 0 0 0 0 0 0 0 0 0 0 0
0 0 0 0 0 0 0 0 0 0 0 0 0 0 0 0 0 0 0 0 0 0 0 0 0 0 0 0 0 0 0 0 0 0 0 0 0 0 0 0 0 0 0
0 0 0 0 0 0 0 0 0 0 0 0 0 0 0 0 0 0 0 0 0 0 0 0 0 0 0 0 0 0 0 0 0 0 0 0 0 0 0 0 0 0 0
0 0 0 0 0 0 0 0 0 0 0 0 0 0 0 0 0 0 0 0 0 0 0 0 0 0 0 0 0 0 0 0 0 0 0 0 0 0 0 0 0 0 0
0 0 0 0 0 0 0 0 0 0 0 0 0 0 0 0 0 0 0 0 0 0 0 0 0 0 0 0 0 0 0 0 0 0 0 0 0 0 0 0 0 0 0
0 0 0 0 0 0 0 0 0 0 0 0 0 0 0 0 0 0 0 0 0 0 0 0 0 0 0 0 0 0 0 0 0 0 0 0 0 0 0 0 0 0 0
0 0 0 0 0 0 0 0 0 0 0 0 0 0 0 0 0 0 0 0 0 0 0 0 0 0 0 0 0 0 0 0 0 0 0 0 0 0 0 0 0 0 0
0 0 0 0 0 0 0 0 0 0 0 0 0 0 0 0 0 0 0 0 0 0 0 0 0 0 0 0 0 0 0 0 0 0 0 0 0 0 0 0 0 0 0
0 0 0 0 0 0 0 0 0 0 0 0 0 0 0 0 0 0 0 0 0 0 0 0 0 0 0 0 0 0 0 0 0 0 0 0 0 0 0 0 0 0 0
0 0 0 0 0 0 0 0 0 0 0 0 0 0 0 0 0 0 0 0 0 0 0 0 0 0 0 0 0 0 0 0 0 0 0 0 0 0 0 0 0 0 0
0 0 0 0 0 0 0 0 0 0 0 0 0 0 0 0 0 0 0 0 0 0 0 0 0 0 0 0 0 0 0 0 0 0 0 0 0 0 0 0 0 0 0
0 0 0 0 0 0 0 0 0 0 0 0 0 0 0 0 0 0 0 0 0 0 0 0 0 0 0 0 0 0 0 0 0 0 0 0 0 0 0 0 0 0 0
0 0 0 0 0 0 0 0 0 0 0 0 0 0 0 0 0 0 0 0 0 0 0 0 0 0 0 0 0 0 0 0 0 0 0 0 0 0 0 0 0 0 0
0 0 0 0 0 0 0 0 0 0 0 0 0 0 0 0 0 0 0 0 0 0 0 0 0 0 0 0 0 0 0 0 0 0 0 0 0 0 0 0 0 0 0
0 0 0 0 0 0 0 0 0 0 0 0 0 0 0 0 0 0 0 0 0 0 0 0 0 0 0 0 0 0 0 0 0 0 0 0 0 0 0 0 0 0 0
0 0 0 0 0 0 0 0 0 0 0 0 0 0 0 0 0 0 0 0 0 0 0 0 0 0 0 0 0 0 0 0 0 0 0 0 0 0 0 0 0 0 0
0 0 0 0 0 0 0 0 0 0 0 0 0 0 0 0 0 0 0 0 0 0 0 0 0 0 0 0 0 0 0 0 0 0 0 0 0 0 0 0 0 0 0
0 0 0 0 0 0 0 0 0 0 0 0 0 0 0 0 0 0 0 0 0 0 0 0 0 0 0 0 0 0 0 0 0 0 0 0 0 0 0 0 0 0 0
Wind_Speed
1 1 1 0 0 0 1 1 1 1 1 2 2 2 2 3 3 2 2 5 6 8 8 8 9 9 8 8 8 7 7 7 7 6 6 5 5 5 5 5 6 6 6
1 1 1 1 1 1 1 1 2 2 2 2 2 3 3 3 3 3 3 4 6 7 9 10 9 9 9 9 9 9 8 8 7 7 7 6 6 6 6 6 6 6 6
1 1 1 1 1 1 1 1 1 1 1 2 2 3 3 3 3 4 4 3 3 6 8 10 10 10 10 10 10 9 9 9 8 8 8 8 7 7 7 7 7 7 7
2 1 1 2 1 1 1 1 1 1 1 2 2 3 3 3 4 4 4 3 3 3 5 9 10 11 11 10 10 10 9 9 9 9 9 9 8 8 8 8 7 8 8
1 1 2 2 1 1 1 2 1 1 1 2 2 3 3 3 4 4 4 4 4 4 4 6 9 10 10 10 10 10 10 10 10 10 10 9 9 9 9 9 8 8 9
2 1 1 2 2 1 2 2 2 1 1 1 2 3 3 4 4 4 5 4 4 4 4 5 5 6 9 10 10 11 11 11 10 10 10 10 10 10 10 10 9 9 10
2 2 2 2 2 2 2 2 1 1 1 0 1 3 3 4 4 4 3 3 4 5 4 5 4 4 4 9 10 11 11 11 11 12 11 11 10 10 10 11 10 10 10
2 3 3 3 2 2 2 2 2 1 1 1 1 1 3 3 2 3 2 3 4 3 4 5 5 5 4 4 6 10 11 12 12 12 12 12 11 10 11 11 11 11 11
3 3 3 3 3 3 3 3 3 3 2 1 2 2 2 3 3 2 3 3 3 3 3 4 5 5 5 5 5 7 10 11 13 13 13 12 11 11 11 11 11 11 11
3 3 3 3 3 3 3 3 3 3 3 3 2 2 3 2 2 3 3 2 3 3 4 4 4 5 5 5 6 8 9 11 12 13 13 12 12 12 12 11 11 11 11
2 3 3 3 3 3 3 4 3 3 3 3 3 2 2 3 3 3 5 4 3 3 3 4 4 4 5 5 5 7 9 10 11 12 12 12 13 13 12 12 11 11 10
2 2 2 2 3 3 3 4 4 4 3 3 3 3 3 3 3 3 4 5 5 4 4 4 4 4 4 4 6 7 8 8 9 10 11 12 12 13 13 12 11 11 10
2 2 3 2 2 3 3 3 3 4 4 4 4 4 4 4 3 3 4 4 5 5 4 4 3 4 4 3 4 7 8 8 8 10 10 11 11 10 11 11 11 11 11
3 3 3 3 3 3 3 2 3 3 3 3 4 4 3 3 3 4 4 3 5 5 4 4 3 3 3 3 5 7 6 8 8 8 9 9 9 9 9 10 10 9 10
2 3 3 3 3 3 2 2 2 3 3 3 3 3 3 3 3 3 3 4 4 6 6 4 3 3 3 3 5 4 5 7 8 8 8 9 9 9 8 9 9 8 8
2 2 3 2 2 2 2 2 2 3 3 3 2 3 3 3 3 3 3 3 4 5 6 4 3 3 3 4 6 5 5 8 8 8 8 9 9 8 7 7 7 7 7
2 2 2 2 3 3 2 2 2 3 3 3 3 3 3 3 3 2 3 3 3 4 6 5 3 3 4 5 5 4 4 4 5 8 8 9 8 6 6 6 6 5 5
2 2 2 3 3 3 3 3 3 3 3 3 4 3 4 3 3 3 3 4 4 4 5 6 4 3 4 4 4 4 4 4 4 7 8 8 7 6 6 5 5 4 4
2 2 2 2 3 3 3 3 3 3 3 4 4 3 3 3 3 3 3 4 4 4 4 4 5 3 3 3 3 4 4 3 4 5 6 6 6 5 5 4 4 3 3
2 2 2 2 3 3 3 3 3 3 3 3 3 3 3 4 4 3 3 4 4 4 3 3 4 3 3 2 2 3 3 3 3 3 3 4 4 5 5 4 3 3 3
2 1 1 2 2 2 2 2 2 3 2 3 3 3 3 4 5 4 3 3 3 2 3 3 3 3 3 2 2 2 3 3 3 1 2 2 2 2 2 3 2 2 2
2 1 1 1 2 2 4 4 3 2 2 3 3 3 3 3 4 5 5 4 3 3 3 3 3 4 4 4 3 2 2 2 3 1 1 2 1 1 1 1 1 1 1
2 1 1 1 2 3 4 4 5 3 2 2 2 2 3 3 4 2 3 4 4 4 4 4 4 5 4 4 3 3 2 2 3 2 1 2 1 1 1 1 1 0 1
2 2 2 2 2 3 4 4 5 3 2 2 2 2 2 3 3 2 2 2 2 3 3 3 3 4 4 3 2 2 2 2 2 1 0 1 1 1 1 1 0 0 1
2 2 2 2 2 3 4 3 4 1 1 2 2 2 2 2 4 4 3 2 3 3 4 4 4 4 5 4 2 1 1 1 2 1 0 0 0 1 1 1 1 1 1
2 3 3 2 2 2 4 4 4 1 1 2 2 2 4 4 3 4 2 2 3 3 3 3 3 4 3 2 2 2 2 2 1 1 1 0 0 1 1 1 1 0 1
Wind_Direction
256 220 227 247 290 218 204 223 229 237 256 260 247 235 241 247 246 245 258 267 271 262 256 254 256 255 256 257 257 259 257 249 241 233 236 244 255 257 264 272 263 267 267
245 221 221 230 247 243 227 225 230 230 248 257 253 245 246 254 256 251 251 261 269 268 259 256 257 258 258 256 258 257 256 250 250 241 239 244 250 254 255 265 266 266 269
235 223 210 224 239 248 246 241 243 228 252 263 260 255 249 251 254 260 259 253 257 270 265 259 259 260 259 257 255 256 260 252 251 251 246 245 247 249 253 257 267 265 266
239 223 216 230 241 229 217 224 218 242 267 270 271 267 258 251 256 255 257 254 250 258 268 264 262 260 259 258 255 255 259 258 252 254 249 247 247 247 252 252 259 264 262
247 225 228 231 227 224 215 223 221 209 250 274 278 275 263 248 247 252 250 251 247 249 255 266 261 261 261 259 257 257 257 260 255 254 251 249 248 248 249 253 255 263 261
266 236 233 229 217 212 222 216 228 234 227 253 293 293 281 264 248 241 242 247 246 244 246 256 255 257 261 260 258 256 256 257 257 253 254 251 249 250 249 254 254 262 262
258 228 231 218 215 216 226 215 218 223 241 227 324 312 297 266 250 245 238 239 245 246 246 249 251 246 254 259 259 258 259 259 260 254 256 252 251 251 252 254 253 257 261
252 238 218 225 219 220 228 216 206 206 241 182 208 302 308 306 273 251 242 241 247 246 251 254 249 247 242 242 255 259 263 262 260 256 256 254 252 254 254 254 256 253 259
260 236 224 221 220 210 216 223 212 210 220 240 210 205 233 262 306 277 245 247 252 257 255 256 251 253 250 243 242 254 264 262 262 260 260 255 253 254 258 256 255 258 257
271 245 232 228 224 221 217 224 226 224 204 221 235 238 241 240 254 297 291 265 260 259 261 268 264 254 250 250 248 254 262 260 261 262 264 255 255 257 257 259 258 259 261
275 267 241 235 235 234 228 228 229 229 225 219 222 236 251 261 240 245 278 290 284 265 261 261 260 260 255 254 250 251 262 262 260 261 264 256 255 257 258 259 261 261 263
269 274 268 245 241 240 234 232 226 226 239 235 232 231 229 227 226 234 256 277 285 284 272 265 262 262 262 256 259 268 265 265 264 262 262 261 258 258 259 261 260 266 262
276 275 284 270 261 251 244 238 236 235 236 237 236 240 239 244 235 237 250 269 280 286 277 266 260 261 267 261 261 275 264 271 269 265 263 265 260 258 258 258 258 263 262
258 256 266 268 269 263 257 244 244 245 245 247 249 248 244 251 243 237 236 252 277 282 273 272 276 261 269 270 274 277 262 271 271 271 268 269 267 262 263 259 257 262 265
261 246 256 264 268 262 253 243 245 253 248 252 251 253 252 257 252 252 247 243 248 272 276 271 273 279 282 274 277 269 266 273 274 271 272 272 270 261 259 260 254 259 267
254 244 253 264 269 263 253 245 256 254 259 268 261 251 254 247 248 254 252 257 249 257 271 267 265 275 280 285 285 274 269 281 280 279 276 273 268 259 256 261 252 254 257
256 249 251 256 260 259 252 249 261 267 266 274 273 258 262 255 245 251 256 257 258 253 269 281 269 268 271 279 288 280 273 267 270 277 277 275 265 261 258 263 255 252 250
256 250 254 256 257 259 250 247 255 258 255 260 265 263 270 273 259 247 250 254 258 256 259 279 281 272 269 270 275 279 280 274 267 276 275 275 266 266 260 263 248 243 244
267 259 251 260 263 262 254 249 248 252 251 259 263 260 271 272 274 265 255 254 260 262 260 265 278 275 272 279 284 283 279 275 277 282 277 275 269 272 263 251 245 250 250
277 263 265 263 260 258 252 250 260 270 271 275 274 270 269 264 263 262 263 260 261 262 261 260 272 281 278 271 266 279 295 292 287 294 289 292 293 284 274 255 255 255 248
298 288 286 280 273 261 255 257 264 278 284 292 288 277 274 278 277 272 271 261 258 258 260 265 272 280 282 278 277 276 281 297 296 274 291 296 291 265 248 250 256 259 244
309 298 283 288 295 299 310 317 309 281 284 283 283 292 293 289 288 291 291 286 280 269 271 278 281 275 282 282 287 284 282 291 292 312 310 302 300 273 258 224 239 218 215
322 315 302 290 287 292 310 321 324 309 286 281 287 298 305 305 310 298 304 311 314 307 284 272 279 280 278 274 269 271 275 277 279 298 332 291 296 285 313 314 309 271 277
333 327 317 305 300 299 320 331 335 330 321 304 294 283 286 299 303 308 307 313 310 308 301 290 285 288 288 273 249 251 256 284 297 310 230 263 300 306 313 283 305 69 34
336 330 315 311 301 297 318 338 350 331 322 315 308 305 306 294 309 320 318 316 319 322 328 320 313 313 312 308 295 281 270 263 293 296 267 222 318 338 312 291 309 14 3
333 331 334 334 318 302 318 346 349 311 319 319 310 305 313 321 323 327 321 308 308 314 324 332 334 336 331 327 314 273 254 253 265 284 301 67 82 30 331 315 318 317 347